Rochester, Indiana, United States (46975)
Lat: 41.06N, Lon: 86.22W
Wx Zone: INZ015
Local Info
Past Weather Observations for Today

NOTE: This archive is for the closest National Weather Service station to Rochester. Information may differ from the station used for current weather conditions.

Time Weather Temperature Dewpoint Humidity Pressure Winds Precip Visibility
21:35
Clear
54°F / 12°C 27°F / -3°C 35% 29.8 in
(1009 mb)
SE 13.8 mph
(SE 22 kph)
- 10SM
21:15
Clear
54°F / 12°C 27°F / -3°C 35% 29.8 in
(1009 mb)
SE 12.7 mph
(SE 20 kph)
- 10SM
20:55
Clear
54°F / 12°C 27°F / -3°C 35% 29.8 in
(1009 mb)
SE 15 mph
(SE 24 kph)
- 10SM
20:35
Clear
54°F / 12°C 27°F / -3°C 35% 29.8 in
(1009 mb)
SE 11.5 mph
(SE 19 kph)
- 10SM
20:15
Clear
54°F / 12°C 27°F / -3°C 35% 29.8 in
(1009 mb)
SE 13.8 mph
(SE 22 kph)
- 10SM
19:55
Clear
54°F / 12°C 27°F / -3°C 35% 29.8 in
(1009 mb)
SE 10.4 mph
(SE 17 kph)
- 10SM
19:35
Clear
54°F / 12°C 27°F / -3°C 35% 29.8 in
(1009 mb)
SE 11.5 mph
(SE 19 kph)
- 10SM
19:15
Clear
55°F / 13°C 28°F / -2°C 36% 29.8 in
(1009 mb)
SE 11.5 mph
(SE 19 kph)
- 10SM
18:55
Clear
55°F / 13°C 27°F / -3°C 33% 29.83 in
(1010 mb)
SE 11.5 mph
(SE 19 kph)
- 10SM
18:35
Clear
55°F / 13°C 27°F / -3°C 33% 29.83 in
(1010 mb)
SE 12.7 mph
(SE 20 kph)
- 10SM
18:15
Clear
55°F / 13°C 23°F / -5°C 28% 29.83 in
(1010 mb)
SE 12.7 mph
(SE 20 kph)
- 10SM
17:55
Clear
57°F / 14°C 25°F / -4°C 29% 29.86 in
(1011 mb)
SE 12.7 mph
(SE 20 kph)
- 10SM
17:35
Clear
57°F / 14°C 27°F / -3°C 31% 29.86 in
(1011 mb)
SE 12.7 mph
(SE 20 kph)
- 10SM
17:15
Clear
57°F / 14°C 27°F / -3°C 31% 29.86 in
(1011 mb)
SE 13.8 mph
(SE 22 kph)
- 10SM
16:55
Clear
59°F / 15°C 27°F / -3°C 29% 29.89 in
(1012 mb)
SE 11.5 mph
(SE 19 kph)
- 10SM
16:35
Clear
59°F / 15°C 25°F / -4°C 27% 29.89 in
(1012 mb)
SSE 10.4 mph
(SSE 17 kph)
- 10SM
16:15
Clear
59°F / 15°C 27°F / -3°C 29% 29.89 in
(1012 mb)
SE 15 mph
(SE 24 kph)
- 10SM
15:55
Partly Cloudy
59°F / 15°C 27°F / -3°C 29% 29.92 in
(1013 mb)
ESE 13.8 mph
(ESE 22 kph)
- 10SM
15:35
Mostly Cloudy
57°F / 14°C 27°F / -3°C 31% 29.92 in
(1013 mb)
ESE 10.4 mph
(ESE 17 kph)
- 10SM
15:15
Mostly Cloudy
57°F / 14°C 25°F / -4°C 29% 29.92 in
(1013 mb)
SE 11.5 mph
(SE 19 kph)
- 10SM
14:55
Overcast
57°F / 14°C 25°F / -4°C 29% 29.95 in
(1014 mb)
SE 11.5 mph
(SE 19 kph)
- 10SM
14:35
Fair
59°F / 15°C 25°F / -4°C 27% 29.95 in
(1014 mb)
SE 16.1 mph
(SE 26 kph)
- 10SM
14:20
Fair
59°F / 15°C 25°F / -4°C 27% 29.95 in
(1014 mb)
SE 16.1 mph
(SE 26 kph)
-
13:55
Partly Cloudy
59°F / 15°C 23°F / -5°C 25% 29.98 in
(1015 mb)
SE 16.1 mph
(SE 26 kph)
- 10SM
13:35
Partly Cloudy
57°F / 14°C 23°F / -5°C 27% 29.98 in
(1015 mb)
SE 13.8 mph
(SE 22 kph)
- 10SM
13:15
Partly Cloudy
57°F / 14°C 27°F / -3°C 31% 29.98 in
(1015 mb)
SE 12.7 mph
(SE 20 kph)
- 10SM
12:55
Partly Cloudy
57°F / 14°C 25°F / -4°C 29% 30.01 in
(1016 mb)
SE 13.8 mph
(SE 22 kph)
- 10SM
12:35
Partly Cloudy
59°F / 15°C 27°F / -3°C 29% 30.01 in
(1016 mb)
SE 13.8 mph
(SE 22 kph)
-
12:15
Clear
57°F / 14°C 23°F / -5°C 27% 30.01 in
(1016 mb)
SE 12.7 mph
(SE 20 kph)
- 10SM
11:55
Clear
57°F / 14°C 23°F / -5°C 27% 30.01 in
(1016 mb)
SE 16.1 mph
(SE 26 kph)
- 10SM
11:35
Clear
55°F / 13°C 23°F / -5°C 28% 30.04 in
(1017 mb)
SE 15 mph
(SE 24 kph)
- 10SM
11:15
Clear
55°F / 13°C 23°F / -5°C 28% 30.04 in
(1017 mb)
SE 17.3 mph
(SE 28 kph)
- 10SM
10:55
Partly Cloudy
54°F / 12°C 27°F / -3°C 35% 30.06 in
(1018 mb)
SE 21.9 mph
(SE 35 kph)
- 10SM
10:35
Mostly Cloudy
54°F / 12°C 28°F / -2°C 38% 30.06 in
(1018 mb)
SE 12.7 mph
(SE 20 kph)
- 10SM
10:15
Mostly Cloudy
52°F / 11°C 28°F / -2°C 41% 30.06 in
(1018 mb)
SE 17.3 mph
(SE 28 kph)
- 10SM
09:55
Mostly Cloudy
52°F / 11°C 30°F / -1°C 44% 30.06 in
(1018 mb)
SE 16.1 mph
(SE 26 kph)
- 10SM
09:35
Partly Cloudy
52°F / 11°C 32°F / 0°C 47% 30.06 in
(1018 mb)
SE 8.1 mph
(SE 13 kph)
- 10SM
09:15
Clear
50°F / 10°C 32°F / 0°C 50% 30.09 in
(1019 mb)
SE 9.2 mph
(SE 15 kph)
- 10SM
08:55
Partly Cloudy
50°F / 10°C 32°F / 0°C 50% 30.09 in
(1019 mb)
SE 10.4 mph
(SE 17 kph)
- 10SM
08:35
Mostly Cloudy
48°F / 9°C 32°F / 0°C 54% 30.09 in
(1019 mb)
SE 11.5 mph
(SE 19 kph)
- 10SM
08:15
Mostly Cloudy
46°F / 8°C 32°F / 0°C 57% 30.09 in
(1019 mb)
SE 8.1 mph
(SE 13 kph)
- 10SM
07:55
Clear
46°F / 8°C 32°F / 0°C 57% 30.09 in
(1019 mb)
SE 5.8 mph
(SE 9 kph)
- 10SM
07:35
Clear
46°F / 8°C 32°F / 0°C 57% 30.12 in
(1020 mb)
SE 8.1 mph
(SE 13 kph)
- 10SM
07:15
Partly Cloudy
46°F / 8°C 34°F / 1°C 62% 30.12 in
(1020 mb)
SE 6.9 mph
(SE 11 kph)
- 10SM
06:55
Mostly Cloudy
46°F / 8°C 34°F / 1°C 62% 30.09 in
(1019 mb)
SE 8.1 mph
(SE 13 kph)
- 10SM
06:35
Overcast
46°F / 8°C 34°F / 1°C 62% 30.09 in
(1019 mb)
SE 5.8 mph
(SE 9 kph)
- 10SM
06:15
Overcast
46°F / 8°C 34°F / 1°C 62% 30.09 in
(1019 mb)
SE 6.9 mph
(SE 11 kph)
- 10SM
05:55
Mostly Cloudy
46°F / 8°C 34°F / 1°C 62% 30.09 in
(1019 mb)
SE 3.5 mph
(SE 6 kph)
- 10SM
05:15
Partly Cloudy
46°F / 8°C 32°F / 0°C 57% 30.09 in
(1019 mb)
ESE 6.9 mph
(ESE 11 kph)
- 10SM
04:55
Partly Cloudy
46°F / 8°C 32°F / 0°C 57% 30.09 in
(1019 mb)
E 5.8 mph
(E 9 kph)
- 10SM
04:35
Overcast
Light Rain
46°F / 8°C 32°F / 0°C 57% 30.09 in
(1019 mb)
ESE 4.6 mph
(ESE 7 kph)
- 10SM
04:15
Overcast
48°F / 9°C 32°F / 0°C 54% 30.06 in
(1018 mb)
ESE 5.8 mph
(ESE 9 kph)
- 10SM
03:55
Overcast
48°F / 9°C 30°F / -1°C 50% 30.06 in
(1018 mb)
ESE 5.8 mph
(ESE 9 kph)
- 10SM
03:35
Overcast
46°F / 8°C 30°F / -1°C 53% 30.06 in
(1018 mb)
E 5.8 mph
(E 9 kph)
- 10SM
03:15
Overcast
46°F / 8°C 30°F / -1°C 53% 30.06 in
(1018 mb)
ESE 6.9 mph
(ESE 11 kph)
- 10SM
02:55
Overcast
48°F / 9°C 30°F / -1°C 50% 30.06 in
(1018 mb)
ESE 5.8 mph
(ESE 9 kph)
- 10SM
02:35
Overcast
48°F / 9°C 28°F / -2°C 46% 30.06 in
(1018 mb)
E 5.8 mph
(E 9 kph)
- 10SM
02:15
Overcast
48°F / 9°C 28°F / -2°C 46% 30.06 in
(1018 mb)
E 6.9 mph
(E 11 kph)
- 10SM
01:55
Overcast
48°F / 9°C 28°F / -2°C 46% 30.06 in
(1018 mb)
E 6.9 mph
(E 11 kph)
- 10SM
01:35
Overcast
48°F / 9°C 28°F / -2°C 46% 30.06 in
(1018 mb)
SE 5.8 mph
(SE 9 kph)
- 10SM
01:15
Overcast
48°F / 9°C 28°F / -2°C 46% 30.06 in
(1018 mb)
SE 5.8 mph
(SE 9 kph)
- 10SM
00:55
Overcast
48°F / 9°C 30°F / -1°C 50% 30.06 in
(1018 mb)
SE 6.9 mph
(SE 11 kph)
- 10SM
00:35
Overcast
48°F / 9°C 30°F / -1°C 50% 30.06 in
(1018 mb)
ESE 6.9 mph
(ESE 11 kph)
- 10SM
00:15
Overcast
46°F / 8°C 37°F / 3°C 71% 30.06 in
(1018 mb)
ENE 3.5 mph
(ENE 6 kph)
- 10SM
Time Weather Temperature Dewpoint Humidity Pressure Winds Precip Visibility


Weather for websites

WeatherForYou.com, LLC is not responsible for any damages or problems caused by this service. Current weather conditions are obtained from the closest station including government and personal stations which may have varying degrees of accuracy. Weather forecasts are derived from the NOAA NDFD. Like all things, this site belongs to Jesus Christ... He just trusts me to maintain it. If you have any questions or comments email webmaster@weatherforyou.com

Copyright © 2014, WeatherForYou.com LLC. All rights reserved.